ソーホー彗星

C/1997 L2 ( SOHO )

English version
Home page
Updated on June 20, 1997

---------------------------------------------------------------------

・ プロフィール

発見日 1997年6月10日
発見光度 5等
発見者 SOHO-LASCO coronagraphs C2 and C3

・ 軌道要素

T 1997 June 10.97523 TT                                 Marsden
q   0.0430141            (2000.0)            P               Q
                   Peri.   66.38986     -0.16952355     -0.39694522
                   Node    72.79319     +0.08866097     -0.91773027
e   1.0            Incl.   70.78943     +0.98152993     +0.01434016
>From 18 observations 1997 June 10-11.

・ 星図

・ 1997年 6月 1日〜1997年 7月31日

・ 光度変化

        m1 = 21.0 + 5 logΔ + 12.5 log r

---------------------------------------------------------------------

軌道要素は Dr. Brian G. Marsden の計算によるもので、 M.P.E.C. 1997-M06 に掲載されたものです。
星図は StellaNavigator Ver.2.0 for Windows (アストロアーツ 編著 / アスキー出版局刊) で作成したものです。
光度グラフはComet for Windowsで作成したものです。

---------------------------------------------------------------------

Copyright(C) Seiichi Yoshida (comet@aerith.net). All rights reserved.